AAL3599 KMIA-SVMI

Flight info

Callsign AAL3599
Flight time 2h 50m
Altitude 37000
Route GWAVA2 URSUS UP406 BILSI UL795 GELOG/N0452F390 DCT SIMGA DCT TARBA UA511 PENKO UA315 PJG UL339 VUNUM DCT ISISU ALDAK1
Aircraft B738/M-SDE2E3FGHIRWXY/LB1

Departure

Time 2026-05-06 18:47
Airport Miami International Airport (KMIA)

Arrival

Time 2026-05-06 21:37
Airport Maiquetía Simón Bolívar International Airport (SVMI)
Time Latitude Longitude Altitude Speed Heading
2026-05-06 18:08 25.79693 -80.28602 19 ft 0 kts 50°
2026-05-06 18:35 25.79692 -80.28602 19 ft 2 kts 50°
2026-05-06 18:36 25.79682 -80.28614 18 ft 4 kts 17°
2026-05-06 18:36 25.79665 -80.28609 19 ft 4 kts 306°
2026-05-06 18:36 25.79654 -80.28583 18 ft 4 kts 273°
2026-05-06 18:36 25.79654 -80.28571 18 ft 1 kts 266°
2026-05-06 18:40 25.79653 -80.28580 18 ft 2 kts 266°
2026-05-06 18:41 25.79652 -80.28608 18 ft 5 kts 266°
2026-05-06 18:41 25.79649 -80.28651 19 ft 6 kts 266°
2026-05-06 18:41 25.79646 -80.28705 21 ft 8 kts 266°
2026-05-06 18:41 25.79646 -80.28775 19 ft 9 kts 282°
2026-05-06 18:42 25.79697 -80.28811 19 ft 10 kts 355°
2026-05-06 18:42 25.79773 -80.28816 19 ft 12 kts 357°
2026-05-06 18:42 25.79866 -80.28820 20 ft 14 kts 357°
2026-05-06 18:42 25.79959 -80.28825 21 ft 13 kts 357°
2026-05-06 18:43 25.80014 -80.28892 20 ft 14 kts 268°
2026-05-06 18:43 25.80009 -80.29006 19 ft 16 kts 268°
2026-05-06 18:43 25.80005 -80.29117 20 ft 16 kts 268°
2026-05-06 18:43 25.79999 -80.29237 20 ft 16 kts 265°
2026-05-06 18:44 25.79993 -80.29375 16 ft 20 kts 267°
2026-05-06 18:44 25.79986 -80.29542 12 ft 22 kts 267°
2026-05-06 18:44 25.79980 -80.29706 13 ft 21 kts 268°
2026-05-06 18:44 25.79972 -80.29867 11 ft 21 kts 267°
2026-05-06 18:45 25.79965 -80.29999 11 ft 15 kts 267°
2026-05-06 18:45 25.79987 -80.30105 13 ft 14 kts 297°
2026-05-06 18:45 25.80065 -80.30118 15 ft 13 kts 50°
2026-05-06 18:45 25.80077 -80.30017 11 ft 13 kts 88°
2026-05-06 18:46 25.80082 -80.29859 12 ft 41 kts 88°
2026-05-06 18:46 25.80106 -80.29307 17 ft 98 kts 87°
2026-05-06 18:46 25.80144 -80.28393 15 ft 140 kts 86°
2026-05-06 18:46 25.80175 -80.27185 100 ft 164 kts 88°
2026-05-06 18:47 25.80264 -80.25960 655 ft 160 kts 86°
2026-05-06 18:47 25.80130 -80.24674 869 ft 181 kts 111°
2026-05-06 18:47 25.79287 -80.23666 1365 ft 180 kts 152°
2026-05-06 18:47 25.78224 -80.23109 2242 ft 160 kts 150°
2026-05-06 18:48 25.77231 -80.22534 2814 ft 168 kts 150°
2026-05-06 18:48 25.76142 -80.21833 3033 ft 193 kts 143°
2026-05-06 18:48 25.75128 -80.20859 3629 ft 194 kts 135°
2026-05-06 18:48 25.74164 -80.19807 4295 ft 198 kts 135°
2026-05-06 18:49 25.73154 -80.18725 4828 ft 206 kts 134°
2026-05-06 18:49 25.72025 -80.17701 5216 ft 217 kts 156°
2026-05-06 18:49 25.70480 -80.17436 5335 ft 236 kts 187°
2026-05-06 18:49 25.68907 -80.17972 5825 ft 241 kts 204°
2026-05-06 18:50 25.67306 -80.18773 6093 ft 262 kts 205°
2026-05-06 18:50 25.65588 -80.19487 6754 ft 264 kts 192°
2026-05-06 18:50 25.63821 -80.19736 7839 ft 249 kts 185°
2026-05-06 18:50 25.62084 -80.19763 8346 ft 263 kts 169°
2026-05-06 18:51 25.60355 -80.18894 8576 ft 284 kts 149°
2026-05-06 18:51 25.58671 -80.17747 9077 ft 293 kts 149°
2026-05-06 18:51 25.56916 -80.16548 9744 ft 298 kts 149°
2026-05-06 18:51 25.55131 -80.15337 10333 ft 307 kts 149°
2026-05-06 18:52 25.53247 -80.14069 10491 ft 330 kts 148°
2026-05-06 18:52 25.51228 -80.12721 10693 ft 349 kts 148°
2026-05-06 18:52 25.49112 -80.11316 11162 ft 358 kts 148°
2026-05-06 18:52 25.46984 -80.09908 11758 ft 363 kts 148°
2026-05-06 18:53 25.44806 -80.08471 12375 ft 367 kts 148°
2026-05-06 18:53 25.42585 -80.07009 12958 ft 374 kts 148°
2026-05-06 18:53 25.40341 -80.05531 13588 ft 378 kts 148°
2026-05-06 18:53 25.38072 -80.04038 14206 ft 383 kts 148°
2026-05-06 18:54 25.35760 -80.02519 14790 ft 388 kts 148°
2026-05-06 18:54 25.33434 -80.00989 15388 ft 392 kts 148°
2026-05-06 18:54 25.31093 -79.99451 15948 ft 398 kts 148°
2026-05-06 18:54 25.28672 -79.97862 16522 ft 402 kts 148°
2026-05-06 18:55 25.26289 -79.96297 17132 ft 406 kts 147°
2026-05-06 18:55 25.23883 -79.94646 17670 ft 411 kts 146°
2026-05-06 18:55 25.21458 -79.92921 18196 ft 415 kts 145°
2026-05-06 18:55 25.19028 -79.91174 18701 ft 419 kts 145°
2026-05-06 18:56 25.16577 -79.89415 19226 ft 423 kts 146°
2026-05-06 18:56 25.14099 -79.87644 19744 ft 426 kts 146°
2026-05-06 18:56 25.11621 -79.85881 20278 ft 428 kts 146°
2026-05-06 18:56 25.09099 -79.84092 20771 ft 431 kts 146°
2026-05-06 18:57 25.06569 -79.82302 21230 ft 435 kts 146°
2026-05-06 18:57 25.04044 -79.80516 21678 ft 438 kts 146°
2026-05-06 18:57 25.01494 -79.78715 22109 ft 441 kts 147°
2026-05-06 18:57 24.98896 -79.76879 22554 ft 444 kts 147°
2026-05-06 18:58 24.96293 -79.75041 22974 ft 447 kts 147°
2026-05-06 18:58 24.93675 -79.73192 23376 ft 449 kts 147°
2026-05-06 18:58 24.91027 -79.71324 23768 ft 452 kts 147°
2026-05-06 18:58 24.88369 -79.69450 24153 ft 455 kts 147°
2026-05-06 18:59 24.85728 -79.67590 24520 ft 457 kts 147°
2026-05-06 18:59 24.83042 -79.65697 24869 ft 460 kts 147°
2026-05-06 18:59 24.80341 -79.63794 25181 ft 464 kts 147°
2026-05-06 18:59 24.77609 -79.61870 25531 ft 466 kts 147°
2026-05-06 19:00 24.74875 -79.59946 25881 ft 469 kts 147°
2026-05-06 19:00 24.72117 -79.58006 26246 ft 470 kts 147°
2026-05-06 19:00 24.69359 -79.56066 26586 ft 473 kts 146°
2026-05-06 19:00 24.66612 -79.54136 26908 ft 475 kts 146°
2026-05-06 19:01 24.63823 -79.52176 27205 ft 478 kts 146°
2026-05-06 19:01 24.60975 -79.50177 27499 ft 481 kts 146°
2026-05-06 19:01 24.58180 -79.48215 27822 ft 483 kts 146°
2026-05-06 19:01 24.55346 -79.46228 28125 ft 485 kts 146°
2026-05-06 19:02 24.52485 -79.44223 28407 ft 488 kts 146°
2026-05-06 19:02 24.49620 -79.42216 28694 ft 490 kts 146°
2026-05-06 19:02 24.46741 -79.40200 28969 ft 492 kts 146°
2026-05-06 19:02 24.43838 -79.38169 29205 ft 495 kts 146°
2026-05-06 19:03 24.40928 -79.36133 29487 ft 497 kts 146°
2026-05-06 19:03 24.38050 -79.34121 29766 ft 499 kts 146°
2026-05-06 19:03 24.35112 -79.32068 30008 ft 501 kts 146°
2026-05-06 19:03 24.32171 -79.30014 30240 ft 504 kts 146°
2026-05-06 19:04 24.29205 -79.27938 30504 ft 505 kts 146°
2026-05-06 19:04 24.26259 -79.25839 30755 ft 507 kts 145°
2026-05-06 19:04 24.23299 -79.23709 31002 ft 509 kts 145°
2026-05-06 19:04 24.20346 -79.21578 31232 ft 510 kts 145°
2026-05-06 19:05 24.17410 -79.19463 31471 ft 512 kts 145°
2026-05-06 19:05 24.14441 -79.17331 31788 ft 511 kts 146°
2026-05-06 19:05 24.11434 -79.15177 32144 ft 510 kts 146°
2026-05-06 19:05 24.08505 -79.13081 32494 ft 508 kts 146°
2026-05-06 19:06 24.05551 -79.10968 32803 ft 508 kts 146°
2026-05-06 19:06 24.02591 -79.08853 33106 ft 507 kts 146°
2026-05-06 19:06 23.99522 -79.06973 33370 ft 508 kts 159°
2026-05-06 19:06 23.96110 -79.06035 33750 ft 502 kts 172°
2026-05-06 19:07 23.92690 -79.05443 34261 ft 497 kts 172°
2026-05-06 19:07 23.89318 -79.04838 34511 ft 498 kts 172°
2026-05-06 19:07 23.85901 -79.04200 34648 ft 501 kts 171°
2026-05-06 19:07 23.82452 -79.03534 34814 ft 503 kts 171°
2026-05-06 19:08 23.79020 -79.02858 35114 ft 502 kts 171°
2026-05-06 19:08 23.75581 -79.02175 35420 ft 500 kts 171°
2026-05-06 19:08 23.72168 -79.01495 35700 ft 500 kts 171°
2026-05-06 19:08 23.68753 -79.00817 35921 ft 500 kts 171°
2026-05-06 19:09 23.65321 -79.00138 36163 ft 500 kts 171°
2026-05-06 19:09 23.61907 -78.99463 36383 ft 500 kts 171°
2026-05-06 19:09 23.58472 -78.98785 36577 ft 500 kts 171°
2026-05-06 19:09 23.55055 -78.98111 36795 ft 500 kts 171°
2026-05-06 19:10 23.51675 -78.97445 37072 ft 498 kts 171°
2026-05-06 19:10 23.48281 -78.96776 37365 ft 496 kts 171°
2026-05-06 19:10 23.44883 -78.96106 37628 ft 494 kts 171°
2026-05-06 19:10 23.41513 -78.95443 37879 ft 493 kts 171°
2026-05-06 19:11 23.38134 -78.94779 38102 ft 492 kts 171°
2026-05-06 19:11 23.34778 -78.94119 38288 ft 491 kts 171°
2026-05-06 19:11 23.31423 -78.93460 38472 ft 491 kts 171°
2026-05-06 19:11 23.28052 -78.92798 38602 ft 492 kts 171°
2026-05-06 19:12 23.24689 -78.92138 38749 ft 492 kts 171°
2026-05-06 19:12 23.21408 -78.91246 38894 ft 493 kts 161°
2026-05-06 19:12 23.18249 -78.89801 39019 ft 494 kts 152°
2026-05-06 19:13 23.12558 -78.85612 39095 ft 496 kts 141°
2026-05-06 19:13 23.07142 -78.80974 39072 ft 495 kts 141°
2026-05-06 19:14 23.01720 -78.76394 39077 ft 492 kts 141°
2026-05-06 19:14 22.96327 -78.71909 39069 ft 491 kts 141°
2026-05-06 19:15 22.90905 -78.67418 39075 ft 489 kts 141°
2026-05-06 19:15 22.85510 -78.62950 39067 ft 489 kts 141°
2026-05-06 19:16 22.80105 -78.58474 39065 ft 489 kts 141°
2026-05-06 19:16 22.74737 -78.54028 39066 ft 489 kts 141°
2026-05-06 19:17 22.69331 -78.49533 39067 ft 490 kts 141°
2026-05-06 19:17 22.63933 -78.45046 39068 ft 491 kts 141°
2026-05-06 19:18 22.58503 -78.40540 39067 ft 492 kts 141°
2026-05-06 19:18 22.53054 -78.36023 39067 ft 493 kts 141°
2026-05-06 19:19 22.47653 -78.31538 39064 ft 494 kts 141°
2026-05-06 19:19 22.42227 -78.27012 39065 ft 495 kts 141°
2026-05-06 19:20 22.36766 -78.22459 39065 ft 496 kts 141°
2026-05-06 19:20 22.31298 -78.17907 39063 ft 496 kts 141°
2026-05-06 19:21 22.25826 -78.13357 39066 ft 496 kts 141°
2026-05-06 19:21 22.20394 -78.08846 39056 ft 496 kts 141°
2026-05-06 19:22 22.14927 -78.04311 39051 ft 495 kts 141°
2026-05-06 19:22 22.09472 -77.99790 39055 ft 494 kts 141°
2026-05-06 19:23 22.04026 -77.95279 39054 ft 493 kts 141°
2026-05-06 19:23 21.98625 -77.90812 39055 ft 493 kts 141°
2026-05-06 19:24 21.93191 -77.86319 39055 ft 492 kts 141°
2026-05-06 19:24 21.87758 -77.81839 39054 ft 492 kts 141°
2026-05-06 19:25 21.82314 -77.77378 39047 ft 492 kts 141°
2026-05-06 19:25 21.76906 -77.72954 39047 ft 492 kts 141°
2026-05-06 19:26 21.71460 -77.68499 39048 ft 492 kts 141°
2026-05-06 19:26 21.66020 -77.64052 39045 ft 492 kts 141°
2026-05-06 19:27 21.60557 -77.59590 39046 ft 492 kts 141°
2026-05-06 19:27 21.55137 -77.55166 39047 ft 493 kts 141°
2026-05-06 19:28 21.53870 -77.54133 39046 ft 493 kts 141°
2026-05-06 19:28 21.48427 -77.49696 39046 ft 493 kts 141°
2026-05-06 19:29 21.42962 -77.45244 39048 ft 493 kts 141°
2026-05-06 19:29 21.37530 -77.40828 39046 ft 493 kts 141°
2026-05-06 19:30 21.34884 -77.38690 39045 ft 493 kts 141°
2026-05-06 19:30 21.29388 -77.34262 39047 ft 493 kts 141°
2026-05-06 19:31 21.23900 -77.29842 39046 ft 493 kts 141°
2026-05-06 19:31 21.15714 -77.23250 39043 ft 493 kts 141°
2026-05-06 19:32 21.10225 -77.18835 39036 ft 493 kts 141°
2026-05-06 19:32 21.04740 -77.14427 39036 ft 493 kts 141°
2026-05-06 19:33 20.99272 -77.10036 39036 ft 492 kts 141°
2026-05-06 19:33 20.93835 -77.05673 39037 ft 492 kts 141°
2026-05-06 19:34 20.88362 -77.01285 39029 ft 491 kts 141°
2026-05-06 19:34 20.82910 -76.96910 39031 ft 491 kts 141°
2026-05-06 19:35 20.77478 -76.92551 39028 ft 490 kts 141°
2026-05-06 19:35 20.71995 -76.88155 39028 ft 490 kts 141°
2026-05-06 19:36 20.66576 -76.83814 39029 ft 490 kts 141°
2026-05-06 19:36 20.61117 -76.79445 39029 ft 490 kts 141°
2026-05-06 19:37 20.55654 -76.75079 39028 ft 490 kts 141°
2026-05-06 19:37 20.50191 -76.70716 39028 ft 490 kts 141°
2026-05-06 19:38 20.44780 -76.66397 39033 ft 490 kts 141°
2026-05-06 19:38 20.39306 -76.62033 39014 ft 491 kts 141°
2026-05-06 19:39 20.33960 -76.57766 39032 ft 490 kts 141°
2026-05-06 19:39 20.28499 -76.53407 39031 ft 491 kts 141°
2026-05-06 19:40 20.23072 -76.49080 39030 ft 491 kts 141°
2026-05-06 19:40 20.17600 -76.44721 39036 ft 491 kts 141°
2026-05-06 19:41 20.12129 -76.40368 39038 ft 491 kts 140°
2026-05-06 19:41 20.06667 -76.36025 39032 ft 490 kts 141°
2026-05-06 19:42 20.01242 -76.31714 39043 ft 490 kts 141°
2026-05-06 19:42 19.95777 -76.27376 39030 ft 491 kts 141°
2026-05-06 19:43 19.90303 -76.23036 39042 ft 490 kts 141°
2026-05-06 19:43 19.84850 -76.18716 39047 ft 489 kts 141°
2026-05-06 19:44 19.79590 -76.14552 39046 ft 488 kts 141°
2026-05-06 19:44 19.74304 -76.10370 39046 ft 488 kts 141°
2026-05-06 19:45 19.68882 -76.06084 39046 ft 488 kts 141°
2026-05-06 19:45 19.63491 -76.01825 39050 ft 488 kts 141°
2026-05-06 19:46 19.58066 -75.97545 39044 ft 488 kts 141°
2026-05-06 19:46 19.52604 -75.93241 39047 ft 488 kts 141°
2026-05-06 19:47 19.47149 -75.88944 39047 ft 489 kts 141°
2026-05-06 19:47 19.41727 -75.84674 39044 ft 489 kts 141°
2026-05-06 19:48 19.36261 -75.80374 39035 ft 489 kts 140°
2026-05-06 19:48 19.30792 -75.76074 39047 ft 490 kts 140°
2026-05-06 19:49 19.25331 -75.71787 39048 ft 490 kts 140°
2026-05-06 19:49 19.19855 -75.67490 39044 ft 490 kts 140°
2026-05-06 19:50 19.14418 -75.63228 39048 ft 490 kts 140°
2026-05-06 19:50 19.08941 -75.58937 39045 ft 490 kts 140°
2026-05-06 19:51 19.03462 -75.54649 39047 ft 490 kts 140°
2026-05-06 19:51 18.97983 -75.50363 39046 ft 490 kts 140°
2026-05-06 19:52 18.92544 -75.46113 39035 ft 490 kts 140°
2026-05-06 19:52 18.87067 -75.41838 39039 ft 489 kts 140°
2026-05-06 19:53 18.81593 -75.37568 39037 ft 489 kts 140°
2026-05-06 19:53 18.76121 -75.33303 39036 ft 489 kts 140°
2026-05-06 19:54 18.70696 -75.29077 39036 ft 488 kts 140°
2026-05-06 19:54 18.65231 -75.24823 39040 ft 488 kts 140°
2026-05-06 19:55 18.59781 -75.20584 39034 ft 488 kts 140°
2026-05-06 19:55 18.54304 -75.16361 39034 ft 488 kts 142°
2026-05-06 19:56 18.48669 -75.12355 39027 ft 489 kts 143°
2026-05-06 19:56 18.43034 -75.08440 39027 ft 488 kts 143°
2026-05-06 19:57 18.37379 -75.04472 39008 ft 488 kts 143°
2026-05-06 19:57 18.31739 -75.00485 39031 ft 488 kts 143°
2026-05-06 19:58 18.26137 -74.96522 39028 ft 489 kts 143°
2026-05-06 19:58 18.20487 -74.92529 39027 ft 489 kts 143°
2026-05-06 19:59 18.14829 -74.88535 39010 ft 490 kts 143°
2026-05-06 19:59 18.09164 -74.84541 39018 ft 490 kts 143°
2026-05-06 20:00 18.03535 -74.80574 39011 ft 491 kts 143°
2026-05-06 20:00 17.97861 -74.76579 39003 ft 491 kts 143°
2026-05-06 20:01 17.92200 -74.72596 39006 ft 491 kts 143°
2026-05-06 20:01 17.86527 -74.68607 39010 ft 490 kts 143°
2026-05-06 20:02 17.81053 -74.64380 38986 ft 486 kts 136°
2026-05-06 20:02 17.75999 -74.59756 38988 ft 485 kts 134°
2026-05-06 20:03 17.70952 -74.55066 38981 ft 484 kts 135°
2026-05-06 20:03 17.65874 -74.50426 38980 ft 484 kts 135°
2026-05-06 20:04 17.60812 -74.45852 38983 ft 484 kts 135°
2026-05-06 20:04 17.55710 -74.41257 38981 ft 483 kts 135°
2026-05-06 20:05 17.50607 -74.36663 38981 ft 483 kts 135°
2026-05-06 20:05 17.45505 -74.32069 38984 ft 484 kts 135°
2026-05-06 20:06 17.40436 -74.27508 38984 ft 484 kts 135°
2026-05-06 20:06 17.35325 -74.22913 38980 ft 484 kts 135°
2026-05-06 20:07 17.30224 -74.18330 38981 ft 484 kts 135°
2026-05-06 20:07 17.25107 -74.13737 38973 ft 485 kts 135°
2026-05-06 20:08 17.19990 -74.09147 38972 ft 484 kts 136°
2026-05-06 20:08 17.14910 -74.04594 38974 ft 484 kts 136°
2026-05-06 20:09 17.09800 -74.00018 38970 ft 483 kts 136°
2026-05-06 20:09 17.04698 -73.95451 38967 ft 482 kts 136°
2026-05-06 20:10 16.99605 -73.90896 38974 ft 481 kts 136°
2026-05-06 20:10 16.94555 -73.86384 38973 ft 481 kts 136°
2026-05-06 20:11 16.89478 -73.81849 38973 ft 480 kts 136°
2026-05-06 20:11 16.84407 -73.77324 38970 ft 479 kts 136°
2026-05-06 20:12 16.79343 -73.72808 38975 ft 478 kts 136°
2026-05-06 20:12 16.74324 -73.68336 38969 ft 477 kts 136°
2026-05-06 20:13 16.69251 -73.63819 38971 ft 477 kts 136°
2026-05-06 20:13 16.64245 -73.59364 38971 ft 476 kts 137°
2026-05-06 20:14 16.59209 -73.54884 38965 ft 476 kts 137°
2026-05-06 20:14 16.54201 -73.50383 38958 ft 474 kts 132°
2026-05-06 20:15 16.50267 -73.45045 38963 ft 464 kts 114°
2026-05-06 20:15 16.47557 -73.38976 38961 ft 462 kts 110°
2026-05-06 20:16 16.44926 -73.32870 38965 ft 462 kts 110°
2026-05-06 20:16 16.42250 -73.26773 38961 ft 463 kts 111°
2026-05-06 20:17 16.39562 -73.20720 38966 ft 464 kts 111°
2026-05-06 20:17 16.36842 -73.14612 38962 ft 465 kts 111°
2026-05-06 20:18 16.34115 -73.08491 38965 ft 466 kts 111°
2026-05-06 20:18 16.31388 -73.02371 38962 ft 468 kts 111°
2026-05-06 20:19 16.28648 -72.96225 38963 ft 468 kts 111°
2026-05-06 20:19 16.25920 -72.90114 38965 ft 469 kts 111°
2026-05-06 20:20 16.23172 -72.83973 38971 ft 470 kts 111°
2026-05-06 20:20 16.20407 -72.77808 38971 ft 470 kts 111°
2026-05-06 20:21 16.17637 -72.71634 38963 ft 471 kts 112°
2026-05-06 20:21 16.14883 -72.65504 38962 ft 471 kts 112°
2026-05-06 20:22 16.12109 -72.59332 38963 ft 471 kts 112°
2026-05-06 20:22 16.09333 -72.53159 38963 ft 471 kts 112°
2026-05-06 20:23 16.06556 -72.46991 38962 ft 471 kts 112°
2026-05-06 20:23 16.03800 -72.40874 38962 ft 470 kts 112°
2026-05-06 20:24 16.01025 -72.34720 38985 ft 469 kts 112°
2026-05-06 20:24 15.98258 -72.28590 38994 ft 469 kts 113°
2026-05-06 20:25 15.95467 -72.22458 38999 ft 469 kts 113°
2026-05-06 20:25 15.92665 -72.16327 38994 ft 470 kts 113°
2026-05-06 20:26 15.89878 -72.10234 38993 ft 470 kts 113°
2026-05-06 20:26 15.87070 -72.04093 38990 ft 471 kts 113°
2026-05-06 20:27 15.84259 -71.97950 38992 ft 471 kts 113°
2026-05-06 20:27 15.81465 -71.91850 38988 ft 471 kts 113°
2026-05-06 20:28 15.78649 -71.85703 38994 ft 471 kts 113°
2026-05-06 20:28 15.75831 -71.79558 38984 ft 471 kts 113°
2026-05-06 20:29 15.73010 -71.73416 38990 ft 471 kts 113°
2026-05-06 20:29 15.70206 -71.67314 38999 ft 472 kts 114°
2026-05-06 20:30 15.65966 -71.58099 38983 ft 472 kts 114°
2026-05-06 20:31 15.63132 -71.51944 38986 ft 473 kts 114°
2026-05-06 20:31 15.60292 -71.45785 38979 ft 473 kts 114°
2026-05-06 20:32 15.57469 -71.39665 38981 ft 474 kts 114°
2026-05-06 20:32 15.54622 -71.33498 38984 ft 474 kts 115°
2026-05-06 20:33 15.51805 -71.27312 38979 ft 475 kts 114°
2026-05-06 20:33 15.49058 -71.21099 38983 ft 475 kts 114°
2026-05-06 20:34 15.46300 -71.14868 38982 ft 476 kts 114°
2026-05-06 20:34 15.43527 -71.08637 38983 ft 476 kts 115°
2026-05-06 20:35 15.40768 -71.02449 38985 ft 476 kts 115°
2026-05-06 20:35 15.37988 -70.96215 38983 ft 476 kts 115°
2026-05-06 20:36 15.35185 -70.89992 38990 ft 477 kts 116°
2026-05-06 20:36 15.32352 -70.83834 38993 ft 477 kts 116°
2026-05-06 20:37 15.29495 -70.77629 38994 ft 477 kts 116°
2026-05-06 20:37 15.26641 -70.71419 38989 ft 478 kts 116°
2026-05-06 20:38 15.23786 -70.65205 38992 ft 478 kts 116°
2026-05-06 20:38 15.20950 -70.59035 38988 ft 478 kts 116°
2026-05-06 20:39 15.18090 -70.52819 38987 ft 478 kts 116°
2026-05-06 20:39 15.15233 -70.46616 38984 ft 479 kts 116°
2026-05-06 20:40 15.12380 -70.40427 38978 ft 478 kts 116°
2026-05-06 20:40 15.09309 -70.34355 38964 ft 476 kts 129°
2026-05-06 20:40 15.07070 -70.31862 38994 ft 470 kts 142°
2026-05-06 20:41 15.04429 -70.29915 38980 ft 465 kts 155°
2026-05-06 20:41 14.98539 -70.27237 38983 ft 463 kts 160°
2026-05-06 20:42 14.92600 -70.24650 38977 ft 464 kts 160°
2026-05-06 20:42 14.86709 -70.22030 38974 ft 464 kts 160°
2026-05-06 20:43 14.80779 -70.19362 38970 ft 465 kts 160°
2026-05-06 20:43 14.74842 -70.16687 38971 ft 465 kts 160°
2026-05-06 20:44 14.68902 -70.14013 38972 ft 466 kts 160°
2026-05-06 20:44 14.62996 -70.11359 38965 ft 466 kts 160°
2026-05-06 20:45 14.57043 -70.08684 38964 ft 467 kts 160°
2026-05-06 20:45 14.51101 -70.06017 38961 ft 467 kts 160°
2026-05-06 20:46 14.45150 -70.03345 38964 ft 466 kts 160°
2026-05-06 20:46 14.39202 -70.00680 38963 ft 466 kts 161°
2026-05-06 20:47 14.33214 -69.98147 38964 ft 464 kts 162°
2026-05-06 20:47 14.27261 -69.95688 38967 ft 464 kts 162°
2026-05-06 20:48 14.21278 -69.93192 38973 ft 463 kts 162°
2026-05-06 20:48 14.15308 -69.90675 38963 ft 464 kts 160°
2026-05-06 20:49 14.09410 -69.87949 38962 ft 465 kts 159°
2026-05-06 20:49 14.03582 -69.85179 38964 ft 464 kts 159°
2026-05-06 20:50 13.97705 -69.82412 38962 ft 464 kts 159°
2026-05-06 20:50 13.91822 -69.79667 38962 ft 464 kts 159°
2026-05-06 20:51 13.85949 -69.76936 38964 ft 464 kts 159°
2026-05-06 20:51 13.80059 -69.74198 38963 ft 464 kts 159°
2026-05-06 20:52 13.74211 -69.71479 38966 ft 464 kts 159°
2026-05-06 20:52 13.68322 -69.68743 38956 ft 464 kts 159°
2026-05-06 20:53 13.62430 -69.66008 38953 ft 464 kts 159°
2026-05-06 20:53 13.56538 -69.63274 38954 ft 464 kts 159°
2026-05-06 20:54 13.50689 -69.60561 38954 ft 464 kts 159°
2026-05-06 20:54 13.44799 -69.57830 38953 ft 464 kts 159°
2026-05-06 20:55 13.38912 -69.55102 38956 ft 464 kts 159°
2026-05-06 20:55 13.33029 -69.52378 38953 ft 464 kts 159°
2026-05-06 20:56 13.27191 -69.49676 38955 ft 463 kts 159°
2026-05-06 20:56 13.21313 -69.46957 38954 ft 463 kts 159°
2026-05-06 20:57 13.15454 -69.44248 38953 ft 463 kts 159°
2026-05-06 20:57 13.09584 -69.41534 38954 ft 462 kts 159°
2026-05-06 20:58 13.03718 -69.38825 38954 ft 462 kts 159°
2026-05-06 20:58 12.97879 -69.36185 38954 ft 462 kts 160°
2026-05-06 20:59 12.91992 -69.33554 38953 ft 461 kts 160°
2026-05-06 20:59 12.87101 -69.31367 38955 ft 461 kts 160°
2026-05-06 21:00 12.81224 -69.28732 38951 ft 461 kts 160°
2026-05-06 21:00 12.74402 -69.25673 38954 ft 460 kts 160°
2026-05-06 21:01 12.68531 -69.23040 38956 ft 460 kts 160°
2026-05-06 21:01 12.63650 -69.20854 38965 ft 460 kts 159°
2026-05-06 21:02 12.57795 -69.18232 38963 ft 460 kts 159°
2026-05-06 21:02 12.50964 -69.15174 38964 ft 460 kts 159°
2026-05-06 21:03 12.46056 -69.12978 38963 ft 460 kts 159°
2026-05-06 21:03 12.40225 -69.10371 38964 ft 461 kts 159°
2026-05-06 21:04 12.34353 -69.07746 38963 ft 461 kts 159°
2026-05-06 21:04 12.28474 -69.05120 38966 ft 461 kts 159°
2026-05-06 21:05 12.22598 -69.02495 38963 ft 461 kts 159°
2026-05-06 21:05 12.16837 -68.99688 38965 ft 464 kts 154°
2026-05-06 21:06 12.11250 -68.96369 38965 ft 465 kts 152°
2026-05-06 21:06 12.05679 -68.93008 38963 ft 465 kts 153°
2026-05-06 21:07 12.00082 -68.89699 38963 ft 464 kts 153°
2026-05-06 21:07 11.94514 -68.86440 38965 ft 464 kts 153°
2026-05-06 21:07 11.91713 -68.84802 38783 ft 468 kts 153°
2026-05-06 21:08 11.88878 -68.83146 38244 ft 471 kts 153°
2026-05-06 21:08 11.86038 -68.81484 37669 ft 468 kts 153°
2026-05-06 21:08 11.83220 -68.79835 37075 ft 467 kts 152°
2026-05-06 21:08 11.80396 -68.78182 36470 ft 466 kts 152°
2026-05-06 21:09 11.77590 -68.76541 35841 ft 465 kts 152°
2026-05-06 21:09 11.74771 -68.74894 35158 ft 466 kts 152°
2026-05-06 21:09 11.71962 -68.73263 34687 ft 462 kts 153°
2026-05-06 21:09 11.69214 -68.71686 34249 ft 457 kts 153°
2026-05-06 21:10 11.66457 -68.70115 33810 ft 453 kts 153°
2026-05-06 21:10 11.63711 -68.68552 33340 ft 449 kts 153°
2026-05-06 21:10 11.61000 -68.67008 32877 ft 446 kts 153°
2026-05-06 21:10 11.58309 -68.65474 32418 ft 442 kts 153°
2026-05-06 21:11 11.55624 -68.63942 31960 ft 439 kts 153°
2026-05-06 21:11 11.52971 -68.62428 31504 ft 436 kts 152°
2026-05-06 21:11 11.50324 -68.60916 31047 ft 433 kts 152°
2026-05-06 21:11 11.47706 -68.59422 30587 ft 431 kts 152°
2026-05-06 21:12 11.45130 -68.57951 30147 ft 428 kts 152°
2026-05-06 21:12 11.42507 -68.56454 29697 ft 425 kts 152°
2026-05-06 21:12 11.39963 -68.55003 29244 ft 423 kts 152°
2026-05-06 21:12 11.37411 -68.53548 28773 ft 420 kts 152°
2026-05-06 21:13 11.34873 -68.52100 28324 ft 417 kts 152°
2026-05-06 21:13 11.32340 -68.50656 27865 ft 415 kts 152°
2026-05-06 21:13 11.29836 -68.49229 27411 ft 412 kts 151°
2026-05-06 21:13 11.27336 -68.47804 26949 ft 409 kts 151°
2026-05-06 21:14 11.24862 -68.46394 26504 ft 407 kts 151°
2026-05-06 21:14 11.22427 -68.45006 26056 ft 405 kts 151°
2026-05-06 21:14 11.19983 -68.43614 25603 ft 402 kts 151°
2026-05-06 21:14 11.17536 -68.42227 25151 ft 400 kts 152°
2026-05-06 21:15 11.14998 -68.41107 24739 ft 397 kts 161°
2026-05-06 21:15 11.12371 -68.40249 24311 ft 394 kts 162°
2026-05-06 21:15 11.09766 -68.39418 23892 ft 392 kts 162°
2026-05-06 21:15 11.07182 -68.38572 23472 ft 390 kts 161°
2026-05-06 21:16 11.04607 -68.37707 23048 ft 387 kts 159°
2026-05-06 21:16 11.02314 -68.36413 22597 ft 382 kts 139°
2026-05-06 21:16 11.00545 -68.34432 22231 ft 375 kts 122°
2026-05-06 21:16 10.99126 -68.32223 21828 ft 372 kts 120°
2026-05-06 21:17 10.97763 -68.30001 21410 ft 369 kts 120°
2026-05-06 21:17 10.96419 -68.27789 20995 ft 367 kts 120°
2026-05-06 21:17 10.95074 -68.25584 20587 ft 365 kts 120°
2026-05-06 21:17 10.93730 -68.23399 20173 ft 363 kts 120°
2026-05-06 21:18 10.92389 -68.21231 19767 ft 361 kts 120°
2026-05-06 21:18 10.91055 -68.19086 19360 ft 358 kts 120°
2026-05-06 21:18 10.89740 -68.16978 18958 ft 356 kts 120°
2026-05-06 21:18 10.88421 -68.14866 18568 ft 354 kts 120°
2026-05-06 21:19 10.87105 -68.12763 18167 ft 351 kts 120°
2026-05-06 21:19 10.85796 -68.10672 17766 ft 349 kts 120°
2026-05-06 21:19 10.84497 -68.08597 17375 ft 346 kts 120°
2026-05-06 21:19 10.83208 -68.06537 16982 ft 344 kts 120°
2026-05-06 21:20 10.81947 -68.04522 16588 ft 341 kts 120°
2026-05-06 21:20 10.80660 -68.02467 16203 ft 339 kts 120°
2026-05-06 21:20 10.79418 -68.00484 15824 ft 336 kts 120°
2026-05-06 21:20 10.78176 -67.98502 15448 ft 333 kts 120°
2026-05-06 21:21 10.76932 -67.96516 15074 ft 330 kts 121°
2026-05-06 21:21 10.75710 -67.94568 14752 ft 325 kts 121°
2026-05-06 21:21 10.74502 -67.92638 14384 ft 323 kts 121°
2026-05-06 21:21 10.73300 -67.90721 14020 ft 320 kts 121°
2026-05-06 21:22 10.72106 -67.88816 13650 ft 317 kts 121°
2026-05-06 21:22 10.70938 -67.86954 13347 ft 314 kts 121°
2026-05-06 21:22 10.69781 -67.85109 13153 ft 307 kts 121°
2026-05-06 21:22 10.68638 -67.83289 12846 ft 304 kts 121°
2026-05-06 21:23 10.67507 -67.81485 12503 ft 302 kts 121°
2026-05-06 21:23 10.66381 -67.79691 12164 ft 301 kts 121°
2026-05-06 21:23 10.65255 -67.77895 11803 ft 300 kts 122°
2026-05-06 21:23 10.64141 -67.76120 11449 ft 298 kts 122°
2026-05-06 21:24 10.63025 -67.74343 11089 ft 297 kts 122°
2026-05-06 21:24 10.61934 -67.72604 10736 ft 295 kts 122°
2026-05-06 21:24 10.60828 -67.70846 10450 ft 292 kts 122°
2026-05-06 21:24 10.59760 -67.69146 10335 ft 282 kts 122°
2026-05-06 21:25 10.58823 -67.67443 10190 ft 273 kts 108°
2026-05-06 21:25 10.58601 -67.65561 10122 ft 263 kts 88°
2026-05-06 21:25 10.58931 -67.63746 9999 ft 263 kts 76°
2026-05-06 21:25 10.59464 -67.61956 9719 ft 269 kts 74°
2026-05-06 21:26 10.60025 -67.60145 9445 ft 275 kts 74°
2026-05-06 21:26 10.60606 -67.58260 9137 ft 276 kts 74°
2026-05-06 21:26 10.61159 -67.56447 8837 ft 275 kts 75°
2026-05-06 21:26 10.61717 -67.54599 8546 ft 273 kts 75°
2026-05-06 21:27 10.62272 -67.52747 8248 ft 272 kts 75°
2026-05-06 21:27 10.62819 -67.50915 7958 ft 270 kts 75°
2026-05-06 21:27 10.63362 -67.49089 7659 ft 269 kts 75°
2026-05-06 21:27 10.63900 -67.47274 7367 ft 268 kts 75°
2026-05-06 21:28 10.64436 -67.45464 7076 ft 266 kts 75°
2026-05-06 21:28 10.64969 -67.43663 6784 ft 266 kts 75°
2026-05-06 21:28 10.65495 -67.41893 6663 ft 258 kts 75°
2026-05-06 21:28 10.65906 -67.40170 6514 ft 250 kts 90°
2026-05-06 21:29 10.65610 -67.38489 6424 ft 238 kts 110°
2026-05-06 21:29 10.64956 -67.36969 6317 ft 231 kts 115°
2026-05-06 21:29 10.64271 -67.35523 6209 ft 224 kts 116°
2026-05-06 21:29 10.63607 -67.34114 6098 ft 216 kts 115°
2026-05-06 21:30 10.62970 -67.32747 5934 ft 216 kts 115°
2026-05-06 21:30 10.62308 -67.31369 5721 ft 216 kts 117°
2026-05-06 21:30 10.61612 -67.30013 5495 ft 216 kts 117°
2026-05-06 21:30 10.60916 -67.28662 5263 ft 215 kts 117°
2026-05-06 21:31 10.60244 -67.27353 5045 ft 212 kts 117°
2026-05-06 21:31 10.59597 -67.26014 4828 ft 205 kts 107°
2026-05-06 21:31 10.59617 -67.24645 4666 ft 196 kts 75°
2026-05-06 21:31 10.59860 -67.23332 4407 ft 192 kts 94°
2026-05-06 21:32 10.59743 -67.21992 4164 ft 189 kts 90°
2026-05-06 21:32 10.59854 -67.19386 3690 ft 182 kts 88°
2026-05-06 21:32 10.59897 -67.18115 3452 ft 177 kts 88°
2026-05-06 21:33 10.59934 -67.16898 3215 ft 173 kts 88°
2026-05-06 21:33 10.59969 -67.15673 2982 ft 170 kts 88°
2026-05-06 21:33 10.60001 -67.14507 2759 ft 166 kts 88°
2026-05-06 21:33 10.60036 -67.13353 2553 ft 160 kts 87°
2026-05-06 21:34 10.60068 -67.12254 2331 ft 151 kts 88°
2026-05-06 21:34 10.60096 -67.11231 2155 ft 138 kts 88°
2026-05-06 21:34 10.60123 -67.10281 1984 ft 136 kts 89°
2026-05-06 21:34 10.60152 -67.09325 1798 ft 140 kts 88°
2026-05-06 21:35 10.60181 -67.08344 1607 ft 138 kts 89°
2026-05-06 21:35 10.60209 -67.07367 1429 ft 138 kts 89°
2026-05-06 21:35 10.60236 -67.06396 1240 ft 138 kts 89°
2026-05-06 21:35 10.60264 -67.05434 1064 ft 139 kts 89°
2026-05-06 21:36 10.60292 -67.04459 904 ft 137 kts 89°
2026-05-06 21:36 10.60317 -67.03486 777 ft 139 kts 89°
2026-05-06 21:36 10.60348 -67.02490 561 ft 142 kts 89°
2026-05-06 21:36 10.60378 -67.01501 314 ft 140 kts 90°
2026-05-06 21:37 10.60400 -67.00565 231 ft 117 kts 88°
2026-05-06 21:37 10.60424 -66.99880 217 ft 77 kts 88°
2026-05-06 21:37 10.60433 -66.99488 203 ft 35 kts 88°
2026-05-06 21:37 10.60437 -66.99324 198 ft 22 kts 89°
2026-05-06 21:38 10.60440 -66.99153 200 ft 27 kts 89°
2026-05-06 21:38 10.60450 -66.98935 184 ft 34 kts 86°
2026-05-06 21:38 10.60460 -66.98710 180 ft 15 kts 89°
2026-05-06 21:38 10.60427 -66.98642 177 ft 6 kts 196°
2026-05-06 21:39 10.60402 -66.98675 178 ft 6 kts 238°
2026-05-06 21:39 10.60381 -66.98711 179 ft 6 kts 239°
2026-05-06 21:39 10.60356 -66.98753 179 ft 8 kts 239°
2026-05-06 21:39 10.60324 -66.98809 181 ft 12 kts 239°
2026-05-06 21:40 10.60280 -66.98912 184 ft 20 kts 267°
2026-05-06 21:40 10.60281 -66.99066 189 ft 20 kts 268°
2026-05-06 21:40 10.60189 -66.99108 194 ft 16 kts 170°
2026-05-06 21:40 10.60080 -66.99084 193 ft 16 kts 166°
2026-05-06 21:41 10.59975 -66.99058 192 ft 15 kts 166°
2026-05-06 21:41 10.59927 -66.99046 198 ft 0 kts 167°
2026-05-06 21:41 10.59920 -66.99048 191 ft 1 kts 203°
2026-05-06 21:42 10.59900 -66.99070 203 ft 10 kts 237°
2026-05-06 21:42 10.59871 -66.99181 202 ft 23 kts 259°
2026-05-06 21:42 10.59823 -66.99370 210 ft 30 kts 256°
2026-05-06 21:42 10.59804 -66.99573 213 ft 29 kts 281°
2026-05-06 21:43 10.59845 -66.99743 221 ft 24 kts 342°
2026-05-06 21:43 10.59963 -66.99660 218 ft 22 kts
2026-05-06 21:43 10.60112 -66.99669 210 ft 18 kts 340°
2026-05-06 21:43 10.60137 -66.99781 218 ft 17 kts 268°
2026-05-06 21:44 10.60132 -66.99898 221 ft 16 kts 265°
2026-05-06 21:44 10.60121 -67.00011 219 ft 16 kts 266°
2026-05-06 21:44 10.60113 -67.00120 222 ft 15 kts 266°
2026-05-06 21:44 10.60098 -67.00199 222 ft 7 kts 211°
2026-05-06 21:45 10.60048 -67.00198 224 ft 7 kts 178°
2026-05-06 21:45 10.59998 -67.00196 222 ft 8 kts 178°
2026-05-06 21:45 10.59940 -67.00195 222 ft 8 kts 178°
2026-05-06 21:45 10.59904 -67.00228 223 ft 8 kts 269°
2026-05-06 21:46 10.59916 -67.00287 224 ft 9 kts 284°
2026-05-06 21:46 10.59924 -67.00358 226 ft 11 kts 272°
2026-05-06 21:46 10.59921 -67.00402 227 ft 4 kts 265°
2026-05-06 21:46 10.59919 -67.00444 228 ft 9 kts 267°
2026-05-06 21:47 10.59914 -67.00535 228 ft 17 kts 268°
2026-05-06 21:47 10.59862 -67.00582 229 ft 11 kts 179°
2026-05-06 21:47 10.59842 -67.00581 229 ft 0 kts 178°
2026-05-06 21:47 10.59839 -67.00581 229 ft 0 kts 178°